Location: *
(43.9900°N, 3.4811°E)
Time: 05:51:31
(UTC+00:00)

ARGOS - Pass Details

Date: 25 August 2019
Orbit: 820 x 834 km, 98.5° (Epoch: 22 September)

Event Time Altitude Azimuth Distance (km) Brightness Sun altitude
Exits shadow 19:55:18 - 169° (S) 2,648 5.4 -14.1°
Reaches altitude 10° 19:55:54 10° 169° (S) 2,412 5.2 -14.2°
Maximum altitude 20:01:15 79° 256° (WSW) 840 3.2 -15.0°
Drops below altitude 10° 20:06:38 10° 344° (NNW) 2,426 6.3 -15.9°
Sets 20:09:00 0° 346° (NNW) 3,363 7.1 -16.2°
